Hourly Data Report for September 13, 2017

All times are specified in Local Standard Time (LST). Add 1 hour to adjust for Daylight Saving Time where and when it is observed.

KOUCHIBOUGUAC CS
NEW BRUNSWICK

46°47'00.000" N
65°01'00.000" W
21.00 m
8102328
71670
AKC

Download Data

Hourly Data (September 2017)
Hourly Data Report for September 13, 2017
Temp Definition
°C
Dew Point Temp Definition
°C
Rel Hum Definition
%
Wind Dir Definition
10's deg

Wind Spd Definition
km/h
Visibility Definition
km
Stn Press Definition
kPa
Hmdx Definition


Wind Chill Definition


Weather Definition


TIME
00:00 10.4 10.0 98 17 1   100.37     LegendNANA
01:00 9.3 9.0 98 22 1   100.36     LegendNANA
02:00 9.0 8.8 98 16 2   100.35     LegendNANA
03:00 8.6 8.4 98 19 4   100.35     LegendNANA
04:00 9.2 8.9 98 20 2   100.34     LegendNANA
05:00 9.5 9.1 97 23 3   100.35     LegendNANA
06:00 9.8 9.4 97 22 3   100.38     LegendNANA
07:00 10.9 10.3 96 21 4   100.45     LegendNANA
08:00 14.7 12.7 88 26 3   100.45     LegendNANA
09:00 19.2 13.5 70 27 7   100.45     LegendNANA
10:00 21.7 13.6 60 28 8   100.43 25   LegendNANA
11:00 23.5 12.5 50 28 8   100.39 26   LegendNANA
12:00 25.1 12.0 44 29 10   100.36 27   LegendNANA
13:00 25.9 10.4 38 28 10   100.31 27   LegendNANA
14:00 26.6 11.3 39 26 10   100.28 29   LegendNANA
15:00 27.1 10.9 36 25 9   100.25 29   LegendNANA
16:00 26.7 9.7 34 27 10   100.24 28   LegendNANA
17:00 26.2 10.6 37 25 9   100.24 28   LegendNANA
18:00 23.1 11.6 48 21 5   100.26 25   LegendNANA
19:00 20.3 11.4 57 20 4   100.29     LegendNANA
20:00 20.1 11.1 56 20 6   100.33     LegendNANA
21:00 19.5 11.0 58 20 8   100.32     LegendNANA
22:00 19.2 10.9 59 22 7   100.32     LegendNANA
23:00 18.3 11.0 63 20 7   100.32     LegendNANA

Notes on Data Quality.

Legend

  • E = Estimated
  • M = Missing
  • NA = Not Available
  • ‡ = Partner data that is not subject to review by the National Climate Archives
Date modified: